This is the latest recevied weather packets stored in our database for station/object W4WYD-2. If no packets are shown the sender has not sent any weather packets the latest 10 day(s).
| Time | Temp. | Humidity | Pressure | Rain* | Wind** | Luminosity | Snow |
|---|---|---|---|---|---|---|---|
| 1787595638 | 28.89° C | 49% | 1018.9 hPa | 0 mm | - | 872 W/m² | - |
| 1787595334 | 28.89° C | 48% | 1019 hPa | 0 mm | - | 881 W/m² | - |
| 1787595033 | 28.89° C | 51% | 1019.1 hPa | 0 mm | - | 889 W/m² | - |
| 1787594728 | 28.89° C | 51% | 1019.2 hPa | 0 mm | - | 884 W/m² | - |
| 1787594427 | 28.89° C | 52% | 1019.3 hPa | 0 mm | - | 895 W/m² | - |
| 1787594127 | 28.89° C | 53% | 1019 hPa | 0 mm | - | 898 W/m² | - |
| 1787593822 | 28.89° C | 54% | 1019.4 hPa | 0 mm | - | 891 W/m² | - |
| 1787593517 | 28.33° C | 56% | 1019.3 hPa | 0 mm | - | 893 W/m² | - |
| 1787593213 | 28.33° C | 53% | 1019.3 hPa | 0 mm | - | 890 W/m² | - |
| 1787592907 | 28.33° C | 58% | 1019.5 hPa | 0 mm | - | 888 W/m² | - |
| 1787592602 | 28.33° C | 53% | 1019.3 hPa | 0 mm | - | 889 W/m² | - |
| 1787592295 | 27.78° C | 53% | 1019.2 hPa | 0 mm | - | 884 W/m² | - |
| 1787591992 | 28.33° C | 53% | 1019.1 hPa | 0 mm | - | 877 W/m² | - |
| 1787591686 | 27.78° C | 54% | 1019.6 hPa | 0 mm | - | 887 W/m² | - |
| 1787591382 | 27.78° C | 53% | 1018.9 hPa | 0 mm | - | 880 W/m² | - |
| 1787591078 | 28.33° C | 50% | 1019.3 hPa | 0 mm | - | 873 W/m² | - |
| 1787590774 | 28.33° C | 53% | 1019.1 hPa | 0 mm | - | 873 W/m² | - |
| 1787590468 | 27.78° C | 55% | 1019.2 hPa | 0 mm | - | 866 W/m² | - |
| 1787590164 | 27.78° C | 57% | 1019.4 hPa | 0 mm | - | 850 W/m² | - |
| 1787589859 | 27.22° C | 54% | 1019.4 hPa | 0 mm | - | 847 W/m² | - |
| 1787589555 | 27.78° C | 48% | 1019.4 hPa | 0 mm | - | 845 W/m² | - |
| 1787589255 | 27.78° C | 53% | 1019.5 hPa | 0 mm | - | 244 W/m² | - |
| 1787588950 | - | - | - | 0 mm | - | - | - |
| 1787588647 | - | - | - | 0 mm | - | - | - |
| 1787588341 | - | - | - | 0 mm | - | - | - |
* Rain latest hour (hover to see other rain measurements)
** Current wind speed in m/s (hover to see current wind gust speed)